Location: Newark
(43.0000°N, 1.6781°W)
Time: 05:15:14
(UTC+00:00)

N. Korean satellite - Pass Details

Date: 03 December 2021
Orbit: 447 x 491 km, 97.3° (Epoch: 25 January)

Event Time Altitude Azimuth Distance (km) Brightness Sun altitude
Rises 05:18:20 0° 13° (NNE) 2,467 10.2 -21.7°
Reaches altitude 10° 05:20:23 10° 15° (NNE) 1,586 9.2 -21.3°
Maximum altitude 05:23:47 74° 101° (E) 470 6.5 -20.7°
Drops below altitude 10° 05:27:08 10° 188° (S) 1,568 9.2 -20.1°
Sets 05:29:09 0° 190° (S) 2,435 10.2 -19.7°
